Tracking 19709 objects as of 20-Jun-2019
HD Live streaming from Space Station
objects crossing your sky now

OPS 1570

Track OPS 1570 now!
OPS 1570 is classified as:


NORAD ID: 5851
Int'l Code: 1972-010A
Perigee: 35,904.8 km
Apogee: 35,965.1 km
Inclination: 6.0 °
Period: 1,443.3 minutes
Semi major axis: 42305 km
RCS: Unknown
Launch date: March 1, 1972
Source: United States (US)
Launch site: AIR FORCE EASTERN TEST RANGE (AFETR)
aabbcc
Your satellite tracking list
Your tracking list is empty




NASA's NSSDC Master Catalog

Two Line Element Set (TLE):
1  5851U 72010A   19169.94788178 +.00000133 +00000-0 +00000-0 0  9994
2  5851 006.0032 296.6833 0007120 328.7616 031.3656 00.99770195000429
Source of the keplerian elements: McCants